Flag for Greece Weather past 2 weeks in Peristeri, Greece

Now
68 °F

Passing clouds.


Feels Like: 68 °F
Forecast: 55 / 75 °F
Wind: 6 mph from Southeast

Location: Elefsis Airport


UV Index: 7 (High)

Visibility: N/A


Pressure: 29.80 "Hg

Humidity: 56%

Dew point: 52 °F

Location of PeristeriLocation

Historic Weather in Peristeri

°F

Peristeri temperature yesterday

Maximum temperature yesterday: 81 °F (at 1:20 PM)
Minimum temperature yesterday: 55 °F (at 5:50 AM)
Average temperature yesterday: 69 °F

Past Weeks' High & Low Weather Summary

 TemperatureHumidityPressure
High81 °F (Apr 23, 1:20 PM)100% (Apr 17, 11:50 PM)30.09 "Hg (Apr 17, 11:50 PM)
Low43 °F (Apr 19, 4:50 AM)21% (Apr 11, 12:50 PM)29.65 "Hg (Apr 18, 3:20 AM)
Average59 °F66%29.90 "Hg
* Reported Apr 9 12:50 AM — Apr 24 12:50 AM, Peristeri, Weather by CustomWeather, © 2014

Note: Actual official high and low records may vary slightly from our data, if they occured in-between our weather recording intervals... More about our weather records

Advertising

Historic Weather Conditions — Data for Previous 24 hours

 ConditionsComfort  
Time TempWeatherWind HumidityBarometerVisibility
12:50 AM
Apr 24
68 °FPassing clouds.No wind56%29.80 "HgN/A
12:20 AM66 °FPassing clouds.No wind64%29.83 "HgN/A
11:50 PM
Apr 23
68 °FPassing clouds.No wind60%29.83 "HgN/A
11:20 PM70 °FPassing clouds.6 mph53%29.83 "HgN/A
10:50 PM72 °FPassing clouds.15 mph44%29.83 "HgN/A
10:20 PM73 °FPassing clouds.8 mph33%29.80 "HgN/A
9:50 PM73 °FPassing clouds.8 mph36%29.80 "HgN/A
9:20 PM72 °FPassing clouds.12 mph38%29.83 "HgN/A
8:50 PM72 °FScattered clouds.5 mph41%29.86 "HgN/A
8:20 PM73 °FScattered clouds.5 mph36%29.86 "HgN/A
7:50 PM73 °FScattered clouds.No wind38%29.86 "HgN/A
7:20 PM73 °FScattered clouds.5 mph41%29.86 "HgN/A
6:50 PM73 °FScattered clouds.No wind47%29.86 "HgN/A
6:20 PM75 °FPartly sunny.5 mph41%29.89 "HgN/A
5:50 PM77 °FPartly sunny.5 mph32%29.89 "HgN/A
5:20 PM79 °FPartly sunny.7 mph30%29.89 "HgN/A
4:50 PM79 °FPartly sunny.6 mph30%29.89 "HgN/A
4:20 PM79 °FPartly sunny.6 mph34%29.89 "HgN/A
3:50 PM79 °FPartly sunny.No wind39%29.92 "HgN/A
3:20 PM79 °FPartly sunny.6 mph37%29.92 "HgN/A
2:50 PM77 °FPartly sunny.No wind42%29.92 "HgN/A
2:20 PM75 °FPartly sunny.No wind47%29.92 "HgN/A
1:50 PM79 °FPartly sunny.5 mph37%29.95 "HgN/A
1:20 PM81 °FPartly sunny.No wind32%29.95 "HgN/A
12:50 PM79 °FPartly sunny.No wind37%29.95 "HgN/A
12:20 PM77 °FPartly sunny.No wind39%29.98 "HgN/A
11:50 AM73 °FPartly sunny.No wind50%29.98 "HgN/A
11:20 AM75 °FPartly sunny.No wind50%29.98 "HgN/A
10:50 AM70 °FPartly sunny.No wind64%29.98 "HgN/A
10:20 AM68 °FBroken clouds.No wind73%29.98 "HgN/A
9:50 AM70 °FBroken clouds.No wind64%29.98 "HgN/A
9:20 AM68 °FPartly sunny.No wind64%29.98 "HgN/A
8:50 AM66 °FPartly sunny.No wind68%29.98 "HgN/A
8:20 AM63 °FPartly sunny.No wind77%29.98 "HgN/A
7:50 AM61 °FScattered clouds.5 mph77%29.98 "HgN/A
7:20 AM57 °FPassing clouds.5 mph88%29.98 "HgN/A
6:50 AM57 °FPassing clouds.No wind88%29.98 "HgN/A
6:20 AM57 °FPassing clouds.6 mph88%29.98 "HgN/A
5:50 AM55 °FPassing clouds.3 mph88%29.98 "HgN/A
5:20 AM57 °FPassing clouds.3 mph88%29.98 "HgN/A
4:50 AM57 °FPassing clouds.5 mph88%29.98 "HgN/A
4:20 AM57 °FPassing clouds.3 mph88%29.98 "HgN/A
3:50 AM57 °FPassing clouds.3 mph88%29.98 "HgN/A
3:20 AM59 °FPassing clouds.No wind82%29.98 "HgN/A
2:50 AM57 °FPassing clouds.No wind88%29.98 "HgN/A
Weather by CustomWeather, © 2014

See weather overview